Location: Newark
(11.6000°N, 43.1667°E)
Time: 23:23:07
(UTC+00:00)

LightSail 2 - Pass Details

Date: 19 September 2019
Orbit: 707 x 723 km, 24.0° (Epoch: 14 October)

Event Time Altitude Azimuth Distance (km) Brightness Sun altitude
Exits shadow 01:32:49 45° 297° (WNW) 944 5.4 -21.3°
Maximum altitude 01:33:54 55° 340° (NNW) 840 5.4 -21.0°
Drops below altitude 10° 01:38:54 10° 58° (ENE) 2,162 8.6 -19.8°
Sets 01:41:23 0° 63° (ENE) 3,083 9.7 -19.2°
